Time,TemperatureF,DewpointF,PressureIn,WindDirection,WindDirectionDegrees,WindSpeedMPH,WindSpeedGustMPH,Humidity,HourlyPrecipIn,Conditions,Clouds,dailyrainin,SoftwareType,DateUTC
2013-02-13 00:00:00,72.5,64.9,29.97,SW,225,0.0,0.0,77,0.00,CLR,,0.00,WeatherDisplay:10.37,2013-02-13 05:00:00,
2013-02-13 00:01:00,72.5,65.2,29.97,SSE,158,0.0,0.0,78,0.00,CLR,,0.00,WeatherDisplay:10.37,2013-02-13 05:01:00,
2013-02-13 00:04:00,72.5,65.2,29.97,SSE,158,0.0,0.0,78,0.00,CLR,,0.00,WeatherDisplay:10.37,2013-02-13 05:04:00,
2013-02-13 00:09:00,72.1,64.9,29.97,South,180,0.0,0.0,78,0.00,CLR,,0.00,WeatherDisplay:10.37,2013-02-13 05:09:00,
2013-02-13 00:14:00,72.1,64.9,29.97,SSE,158,0.0,0.0,78,0.00,CLR,,0.00,WeatherDisplay:10.37,2013-02-13 05:14:00,
2013-02-13 00:19:00,72.1,64.9,29.97,South,180,0.0,0.0,78,0.00,CLR,,0.00,WeatherDisplay:10.37,2013-02-13 05:19:00,
2013-02-13 00:24:00,72.1,64.9,29.97,SSE,158,0.0,0.0,78,0.00,CLR,,0.00,WeatherDisplay:10.37,2013-02-13 05:24:00,
2013-02-13 00:29:00,72.0,64.7,29.96,SSE,158,0.0,0.0,78,0.00,CLR,,0.00,WeatherDisplay:10.37,2013-02-13 05:29:00,
2013-02-13 00:34:00,71.8,64.5,29.96,SW,225,0.0,0.0,78,0.00,CLR,,0.00,WeatherDisplay:10.37,2013-02-13 05:34:00,
2013-02-13 00:39:00,71.6,64.4,29.96,SW,225,0.0,0.0,78,0.00,CLR,,0.00,WeatherDisplay:10.37,2013-02-13 05:39:00,
2013-02-13 00:44:00,71.6,64.4,29.96,WSW,248,0.0,0.0,78,0.00,CLR,,0.00,WeatherDisplay:10.37,2013-02-13 05:44:00,
2013-02-13 00:49:00,71.6,64.7,29.96,SW,225,0.0,0.0,79,0.00,CLR,,0.00,WeatherDisplay:10.37,2013-02-13 05:49:00,
2013-02-13 00:54:00,71.4,64.6,29.96,SW,225,0.0,0.0,79,0.00,CLR,,0.00,WeatherDisplay:10.37,2013-02-13 05:54:00,
2013-02-13 00:59:00,71.4,64.6,29.96,SE,135,0.0,0.0,79,0.00,CLR,,0.00,WeatherDisplay:10.37,2013-02-13 05:59:00,
2013-02-13 01:04:00,71.4,64.6,29.96,WSW,248,0.0,0.0,79,0.00,CLR,,0.00,WeatherDisplay:10.37,2013-02-13 06:04:00,
2013-02-13 01:09:00,71.4,64.6,29.95,SSE,158,0.0,0.0,79,0.00,CLR,,0.00,WeatherDisplay:10.37,2013-02-13 06:09:00,
2013-02-13 01:14:00,71.1,64.2,29.95,SW,225,0.0,0.0,79,0.00,CLR,,0.00,WeatherDisplay:10.37,2013-02-13 06:14:00,
2013-02-13 01:19:00,71.1,64.2,29.95,WSW,248,0.0,0.0,79,0.00,CLR,,0.00,WeatherDisplay:10.37,2013-02-13 06:19:00,
2013-02-13 01:24:00,71.1,64.2,29.95,South,180,1.1,0.0,79,0.00,CLR,,0.00,WeatherDisplay:10.37,2013-02-13 06:24:00,
2013-02-13 01:29:00,71.1,64.2,29.95,SE,135,1.1,1.1,79,0.00,CLR,,0.00,WeatherDisplay:10.37,2013-02-13 06:29:00,
2013-02-13 01:34:00,70.9,64.0,29.95,WSW,248,0.0,0.1,79,0.00,CLR,,0.00,WeatherDisplay:10.37,2013-02-13 06:34:00,
2013-02-13 01:39:00,70.9,64.4,29.95,WSW,248,0.0,0.0,80,0.00,CLR,,0.00,WeatherDisplay:10.37,2013-02-13 06:39:00,
2013-02-13 01:44:00,70.9,64.4,29.95,SSE,158,0.0,0.0,80,0.00,CLR,,0.00,WeatherDisplay:10.37,2013-02-13 06:44:00,
2013-02-13 01:49:00,71.1,64.6,29.94,SE,135,0.0,0.0,80,0.00,CLR,,0.00,WeatherDisplay:10.37,2013-02-13 06:49:00,
2013-02-13 01:54:00,71.1,64.6,29.94,SE,135,0.0,0.0,80,0.00,CLR,,0.00,WeatherDisplay:10.37,2013-02-13 06:54:00,
2013-02-13 01:59:00,70.9,64.4,29.94,South,180,0.0,0.0,80,0.00,CLR,,0.00,WeatherDisplay:10.37,2013-02-13 06:59:00,
2013-02-13 02:04:00,70.7,64.2,29.94,SSE,158,0.0,0.1,80,0.00,CLR,,0.00,WeatherDisplay:10.37,2013-02-13 07:04:00,
2013-02-13 02:09:00,70.7,64.2,29.94,WSW,248,1.1,1.1,80,0.00,CLR,,0.00,WeatherDisplay:10.37,2013-02-13 07:09:00,
2013-02-13 02:14:00,70.7,64.6,29.94,WSW,248,0.0,0.1,81,0.00,CLR,,0.00,WeatherDisplay:10.37,2013-02-13 07:14:00,
2013-02-13 02:19:00,70.7,64.6,29.94,South,180,0.0,0.3,81,0.00,CLR,,0.00,WeatherDisplay:10.37,2013-02-13 07:19:00,
2013-02-13 02:24:00,70.7,64.6,29.94,WNW,292,2.3,2.3,81,0.00,CLR,,0.00,WeatherDisplay:10.37,2013-02-13 07:24:00,
2013-02-13 02:29:00,70.7,64.6,29.93,SSE,158,1.1,1.1,81,0.00,CLR,,0.00,WeatherDisplay:10.37,2013-02-13 07:29:00,
2013-02-13 02:34:00,70.7,64.6,29.93,SE,135,1.1,1.1,81,0.00,CLR,,0.00,WeatherDisplay:10.37,2013-02-13 07:34:00,
2013-02-13 02:39:00,70.7,64.6,29.93,SSE,158,0.0,0.6,81,0.00,CLR,,0.00,WeatherDisplay:10.37,2013-02-13 07:39:00,
2013-02-13 02:44:00,70.7,64.6,29.93,SSE,158,1.1,1.1,81,0.00,CLR,,0.00,WeatherDisplay:10.37,2013-02-13 07:44:00,
2013-02-13 02:49:00,70.7,64.6,29.92,South,180,2.6,2.6,81,0.00,CLR,,0.00,WeatherDisplay:10.37,2013-02-13 07:49:00,
2013-02-13 02:54:00,70.5,64.4,29.92,SW,225,1.1,1.1,81,0.00,CLR,,0.00,WeatherDisplay:10.37,2013-02-13 07:54:00,
2013-02-13 02:59:00,70.5,64.8,29.92,ESE,112,1.1,1.1,82,0.00,CLR,,0.00,WeatherDisplay:10.37,2013-02-13 07:59:00,
2013-02-13 03:04:00,70.7,64.9,29.92,SW,225,2.3,2.3,82,0.00,CLR,,0.00,WeatherDisplay:10.37,2013-02-13 08:04:00,
2013-02-13 03:09:00,70.7,64.9,29.92,SW,225,0.0,0.3,82,0.00,CLR,,0.00,WeatherDisplay:10.37,2013-02-13 08:09:00,
2013-02-13 03:14:00,70.7,64.9,29.92,SSE,158,1.1,1.1,82,0.00,CLR,,0.00,WeatherDisplay:10.37,2013-02-13 08:14:00,
2013-02-13 03:20:00,70.5,64.8,29.92,ESE,112,0.0,0.1,82,0.00,CLR,,0.00,WeatherDisplay:10.37,2013-02-13 08:20:00,
2013-02-13 03:25:00,70.7,64.9,29.92,SSE,158,0.0,0.1,82,0.00,CLR,,0.00,WeatherDisplay:10.37,2013-02-13 08:25:00,
2013-02-13 03:30:00,70.5,64.8,29.92,South,180,1.1,1.1,82,0.00,CLR,,0.00,WeatherDisplay:10.37,2013-02-13 08:30:00,
2013-02-13 03:35:00,70.5,64.8,29.92,WSW,248,1.1,1.1,82,0.00,CLR,,0.00,WeatherDisplay:10.37,2013-02-13 08:35:00,
2013-02-13 03:40:00,70.5,64.8,29.92,WSW,248,0.0,0.2,82,0.00,CLR,,0.00,WeatherDisplay:10.37,2013-02-13 08:40:00,
2013-02-13 03:45:00,70.7,64.9,29.92,SSE,158,1.1,1.1,82,0.00,CLR,,0.00,WeatherDisplay:10.37,2013-02-13 08:45:00,
2013-02-13 03:50:00,70.7,64.9,29.92,WSW,248,0.0,0.2,82,0.00,CLR,,0.00,WeatherDisplay:10.37,2013-02-13 08:50:00,
2013-02-13 03:55:00,70.7,65.3,29.92,West,270,0.0,0.2,83,0.00,CLR,,0.00,WeatherDisplay:10.37,2013-02-13 08:55:00,
2013-02-13 04:00:00,70.7,65.3,29.92,South,180,1.1,1.1,83,0.00,CLR,,0.00,WeatherDisplay:10.37,2013-02-13 09:00:00,
2013-02-13 04:05:00,70.7,65.3,29.92,WSW,248,0.0,0.0,83,0.00,CLR,,0.00,WeatherDisplay:10.37,2013-02-13 09:05:00,
2013-02-13 04:10:00,70.9,65.5,29.92,South,180,0.0,0.1,83,0.00,CLR,,0.00,WeatherDisplay:10.37,2013-02-13 09:10:00,
2013-02-13 04:15:00,71.1,65.6,29.92,West,270,0.0,0.2,83,0.00,CLR,,0.00,WeatherDisplay:10.37,2013-02-13 09:15:00,
2013-02-13 04:20:00,71.1,65.6,29.92,WSW,248,1.4,1.4,83,0.00,CLR,,0.00,WeatherDisplay:10.37,2013-02-13 09:20:00,
2013-02-13 04:25:00,71.2,66.2,29.92,WSW,248,2.3,2.3,84,0.00,CLR,,0.00,WeatherDisplay:10.37,2013-02-13 09:25:00,
2013-02-13 04:30:00,71.2,66.2,29.93,NW,315,1.1,1.1,84,0.00,CLR,,0.00,WeatherDisplay:10.37,2013-02-13 09:30:00,
2013-02-13 04:35:00,71.8,66.7,29.93,NW,315,0.0,0.3,84,0.00,CLR,,0.00,WeatherDisplay:10.37,2013-02-13 09:35:00,
2013-02-13 04:40:00,71.6,66.5,29.93,South,180,1.1,1.1,84,0.00,CLR,,0.00,WeatherDisplay:10.37,2013-02-13 09:40:00,
2013-02-13 04:45:00,71.8,66.7,29.93,South,180,2.9,2.9,84,0.00,CLR,,0.00,WeatherDisplay:10.37,2013-02-13 09:45:00,
2013-02-13 04:50:00,72.0,66.9,29.92,South,180,2.3,2.3,84,0.00,CLR,,0.00,WeatherDisplay:10.37,2013-02-13 09:50:00,
2013-02-13 04:55:00,72.0,67.2,29.92,SSE,158,2.3,2.3,85,0.00,CLR,,0.00,WeatherDisplay:10.37,2013-02-13 09:55:00,
2013-02-13 05:00:00,72.1,67.4,29.92,SE,135,0.0,0.5,85,0.00,CLR,,0.00,WeatherDisplay:10.37,2013-02-13 10:00:00,
2013-02-13 05:05:00,72.3,67.6,29.92,SSW,202,3.5,3.5,85,0.00,CLR,,0.00,WeatherDisplay:10.37,2013-02-13 10:05:00,
2013-02-13 05:10:00,72.1,67.4,29.92,South,180,0.0,0.5,85,0.00,CLR,,0.00,WeatherDisplay:10.37,2013-02-13 10:10:00,
2013-02-13 05:15:00,72.3,67.6,29.92,WSW,248,1.1,1.1,85,0.00,CLR,,0.00,WeatherDisplay:10.37,2013-02-13 10:15:00,
2013-02-13 05:20:00,72.1,67.4,29.92,SSW,202,0.0,0.2,85,0.00,CLR,,0.00,WeatherDisplay:10.37,2013-02-13 10:20:00,
2013-02-13 05:25:00,72.0,67.2,29.92,WNW,292,1.1,1.1,85,0.00,CLR,,0.00,WeatherDisplay:10.37,2013-02-13 10:25:00,
2013-02-13 05:30:00,71.8,67.0,29.93,SW,225,2.3,2.3,85,0.00,CLR,,0.00,WeatherDisplay:10.37,2013-02-13 10:30:00,
2013-02-13 05:35:00,71.8,66.7,29.93,SSE,158,1.1,1.1,84,0.00,CLR,,0.00,WeatherDisplay:10.37,2013-02-13 10:35:00,
2013-02-13 05:40:00,71.6,66.8,29.93,SW,225,0.0,0.3,85,0.00,CLR,,0.00,WeatherDisplay:10.37,2013-02-13 10:40:00,
2013-02-13 05:45:00,71.6,66.5,29.93,SW,225,1.1,1.1,84,0.00,CLR,,0.00,WeatherDisplay:10.37,2013-02-13 10:45:00,
2013-02-13 05:50:00,71.6,66.5,29.92,South,180,2.3,2.3,84,0.00,CLR,,0.00,WeatherDisplay:10.37,2013-02-13 10:50:00,
2013-02-13 05:55:00,71.6,66.8,29.92,SSE,158,2.3,2.3,85,0.00,CLR,,0.00,WeatherDisplay:10.37,2013-02-13 10:55:00,
2013-02-13 06:00:00,71.4,66.7,29.92,SE,135,2.3,2.3,85,0.00,CLR,,0.00,WeatherDisplay:10.37,2013-02-13 11:00:00,
2013-02-13 06:05:00,71.4,66.7,29.92,NW,315,2.3,2.3,85,0.00,CLR,,0.00,WeatherDisplay:10.37,2013-02-13 11:05:00,
2013-02-13 06:10:00,71.4,66.7,29.92,SSE,158,2.5,2.5,85,0.00,CLR,,0.00,WeatherDisplay:10.37,2013-02-13 11:10:00,
2013-02-13 06:15:00,71.6,66.8,29.92,West,270,2.3,2.3,85,0.00,CLR,,0.00,WeatherDisplay:10.37,2013-02-13 11:15:00,
2013-02-13 06:20:00,71.4,66.7,29.92,SSE,158,2.3,2.3,85,0.00,CLR,,0.00,WeatherDisplay:10.37,2013-02-13 11:20:00,
2013-02-13 06:25:00,71.6,66.8,29.92,WSW,248,2.3,2.3,85,0.00,CLR,,0.00,WeatherDisplay:10.37,2013-02-13 11:25:00,
2013-02-13 06:30:00,71.6,66.8,29.93,South,180,2.3,2.3,85,0.00,CLR,,0.00,WeatherDisplay:10.37,2013-02-13 11:30:00,
2013-02-13 06:35:00,71.8,67.0,29.93,SE,135,3.5,3.5,85,0.00,CLR,,0.00,WeatherDisplay:10.37,2013-02-13 11:35:00,
2013-02-13 06:40:00,71.6,66.8,29.93,South,180,4.6,4.6,85,0.00,CLR,,0.00,WeatherDisplay:10.37,2013-02-13 11:40:00,
2013-02-13 06:45:00,71.8,67.0,29.93,SSE,158,3.5,3.5,85,0.00,CLR,,0.00,WeatherDisplay:10.37,2013-02-13 11:45:00,
2013-02-13 06:50:00,71.8,67.0,29.92,ENE,68,2.3,2.3,85,0.00,CLR,,0.00,WeatherDisplay:10.37,2013-02-13 11:50:00,
2013-02-13 06:55:00,72.0,67.2,29.92,NNW,338,4.6,4.6,85,0.00,CLR,,0.00,WeatherDisplay:10.37,2013-02-13 11:55:00,
2013-02-13 07:00:00,72.1,67.4,29.92,SE,135,2.3,2.3,85,0.00,CLR,,0.00,WeatherDisplay:10.37,2013-02-13 12:00:00,
2013-02-13 07:05:00,71.8,67.0,29.92,SW,225,5.8,5.8,85,0.00,CLR,,0.00,WeatherDisplay:10.37,2013-02-13 12:05:00,
2013-02-13 07:10:00,71.8,67.0,29.93,South,180,3.5,3.5,85,0.00,CLR,,0.00,WeatherDisplay:10.37,2013-02-13 12:10:00,
2013-02-13 07:15:00,72.0,67.2,29.93,SSE,158,4.6,4.6,85,0.00,CLR,,0.00,WeatherDisplay:10.37,2013-02-13 12:15:00,
2013-02-13 07:20:00,72.0,67.2,29.93,SSE,158,2.3,2.3,85,0.00,CLR,,0.00,WeatherDisplay:10.37,2013-02-13 12:20:00,
2013-02-13 07:25:00,72.1,67.0,29.93,SSE,158,2.3,2.3,84,0.00,CLR,,0.00,WeatherDisplay:10.37,2013-02-13 12:25:00,
2013-02-13 07:30:00,72.3,67.2,29.93,SSE,158,3.5,3.5,84,0.00,CLR,,0.00,WeatherDisplay:10.37,2013-02-13 12:30:00,
2013-02-13 07:35:00,72.5,67.4,29.93,SE,135,3.5,3.5,84,0.00,CLR,,0.00,WeatherDisplay:10.37,2013-02-13 12:35:00,
2013-02-13 07:40:00,72.9,68.1,29.93,SE,135,4.6,4.6,85,0.00,CLR,,0.00,WeatherDisplay:10.37,2013-02-13 12:40:00,
2013-02-13 07:45:00,72.9,68.1,29.93,SSW,202,4.8,4.8,85,0.00,CLR,,0.00,WeatherDisplay:10.37,2013-02-13 12:45:00,
2013-02-13 07:50:00,73.0,67.9,29.93,SSW,202,4.6,4.6,84,0.00,CLR,,0.00,WeatherDisplay:10.37,2013-02-13 12:50:00,
2013-02-13 07:55:00,73.6,68.4,29.93,South,180,4.6,4.6,84,0.00,CLR,,0.00,WeatherDisplay:10.37,2013-02-13 12:55:00,
2013-02-13 08:00:00,73.8,68.6,29.93,South,180,3.5,3.5,84,0.00,CLR,,0.00,WeatherDisplay:10.37,2013-02-13 13:00:00,
2013-02-13 08:05:00,73.9,68.8,29.93,SE,135,5.8,5.8,84,0.00,CLR,,0.00,WeatherDisplay:10.37,2013-02-13 13:05:00,
2013-02-13 08:10:00,74.3,68.8,29.93,South,180,4.6,4.6,83,0.00,CLR,,0.00,WeatherDisplay:10.37,2013-02-13 13:10:00,
2013-02-13 08:15:00,74.3,68.8,29.93,SSE,158,5.1,5.1,83,0.00,CLR,,0.00,WeatherDisplay:10.37,2013-02-13 13:15:00,
2013-02-13 08:20:00,74.5,69.0,29.93,SE,135,5.8,5.8,83,0.00,CLR,,0.00,WeatherDisplay:10.37,2013-02-13 13:20:00,
2013-02-13 08:25:00,74.8,69.0,29.93,SE,135,6.9,6.9,82,0.00,CLR,,0.00,WeatherDisplay:10.37,2013-02-13 13:25:00,
2013-02-13 08:30:00,75.0,69.1,29.93,South,180,3.5,4.3,82,0.00,CLR,,0.00,WeatherDisplay:10.37,2013-02-13 13:30:00,
2013-02-13 08:35:00,75.4,69.5,29.93,SSE,158,7.4,7.4,82,0.00,CLR,,0.00,WeatherDisplay:10.37,2013-02-13 13:35:00,
2013-02-13 08:40:00,75.7,69.5,29.93,SW,225,5.8,5.8,81,0.00,CLR,,0.00,WeatherDisplay:10.37,2013-02-13 13:40:00,
2013-02-13 08:45:00,75.9,69.7,29.93,North,0,4.6,4.6,81,0.00,CLR,,0.00,WeatherDisplay:10.37,2013-02-13 13:45:00,
2013-02-13 08:50:00,76.1,69.5,29.94,SSE,158,8.1,8.1,80,0.00,CLR,,0.00,WeatherDisplay:10.37,2013-02-13 13:50:00,
2013-02-13 08:55:00,76.5,69.8,29.94,SE,135,8.1,8.1,80,0.00,CLR,,0.00,WeatherDisplay:10.37,2013-02-13 13:55:00,
2013-02-13 09:00:00,76.6,69.6,29.94,South,180,5.8,5.8,79,0.00,CLR,,0.00,WeatherDisplay:10.37,2013-02-13 14:00:00,
2013-02-13 09:05:00,76.8,69.8,29.94,SSW,202,8.1,8.1,79,0.00,CLR,,0.00,WeatherDisplay:10.37,2013-02-13 14:05:00,
2013-02-13 09:10:00,77.2,69.8,29.94,SSE,158,5.8,5.8,78,0.00,CLR,,0.00,WeatherDisplay:10.37,2013-02-13 14:10:00,
2013-02-13 09:15:00,77.4,70.0,29.94,South,180,5.8,5.8,78,0.00,CLR,,0.00,WeatherDisplay:10.37,2013-02-13 14:15:00,
2013-02-13 09:20:00,77.9,70.5,29.94,South,180,6.8,6.8,78,0.00,CLR,,0.00,WeatherDisplay:10.37,2013-02-13 14:20:00,
2013-02-13 09:25:00,78.3,70.1,29.94,South,180,11.5,11.5,76,0.00,CLR,,0.00,WeatherDisplay:10.37,2013-02-13 14:25:00,
2013-02-13 09:30:00,78.6,70.4,29.94,SSE,158,4.6,5.9,76,0.00,CLR,,0.00,WeatherDisplay:10.37,2013-02-13 14:30:00,
2013-02-13 09:35:00,78.8,70.2,29.94,SSE,158,8.1,8.1,75,0.00,CLR,,0.00,WeatherDisplay:10.37,2013-02-13 14:35:00,
2013-02-13 09:40:00,79.0,70.4,29.94,SSE,158,4.6,5.2,75,0.00,CLR,,0.00,WeatherDisplay:10.37,2013-02-13 14:40:00,
2013-02-13 09:45:00,79.3,70.3,29.94,SSE,158,9.4,9.4,74,0.00,CLR,,0.00,WeatherDisplay:10.37,2013-02-13 14:45:00,
2013-02-13 09:50:00,79.7,70.7,29.95,South,180,5.8,5.8,74,0.00,CLR,,0.00,WeatherDisplay:10.37,2013-02-13 14:50:00,
2013-02-13 09:55:00,79.9,70.4,29.95,SE,135,8.1,8.1,73,0.00,CLR,,0.00,WeatherDisplay:10.37,2013-02-13 14:55:00,
2013-02-13 10:00:00,80.6,71.1,29.95,SSE,158,6.9,6.9,73,0.00,CLR,,0.00,WeatherDisplay:10.37,2013-02-13 15:00:00,
2013-02-13 10:05:00,80.8,70.9,29.95,SSE,158,10.4,10.4,72,0.00,CLR,,0.00,WeatherDisplay:10.37,2013-02-13 15:05:00,
2013-02-13 10:10:00,80.4,70.6,29.95,SSE,158,7.8,7.8,72,0.00,CLR,,0.00,WeatherDisplay:10.37,2013-02-13 15:10:00,
2013-02-13 10:15:00,80.4,70.6,29.95,South,180,9.2,9.2,72,0.00,CLR,,0.00,WeatherDisplay:10.37,2013-02-13 15:15:00,
2013-02-13 10:20:00,81.1,71.3,29.95,SE,135,6.9,6.9,72,0.00,CLR,,0.00,WeatherDisplay:10.37,2013-02-13 15:20:00,
2013-02-13 10:26:00,81.3,71.4,29.95,ESE,112,12.7,12.7,72,0.00,CLR,,0.00,WeatherDisplay:10.37,2013-02-13 15:26:00,
2013-02-13 10:31:00,81.9,71.5,29.95,SSE,158,8.1,8.1,71,0.00,CLR,,0.00,WeatherDisplay:10.37,2013-02-13 15:31:00,
2013-02-13 10:36:00,82.2,71.9,29.95,North,0,6.9,6.9,71,0.00,CLR,,0.00,WeatherDisplay:10.37,2013-02-13 15:36:00,
2013-02-13 10:41:00,82.6,71.8,29.95,SE,135,6.8,6.8,70,0.00,CLR,,0.00,WeatherDisplay:10.37,2013-02-13 15:41:00,
2013-02-13 10:46:00,82.2,71.5,29.95,SE,135,8.1,8.1,70,0.00,CLR,,0.00,WeatherDisplay:10.37,2013-02-13 15:46:00,
2013-02-13 10:51:00,82.0,71.3,29.95,SW,225,9.2,9.2,70,0.00,CLR,,0.00,WeatherDisplay:10.37,2013-02-13 15:51:00,
2013-02-13 10:56:00,82.8,72.0,29.95,South,180,10.4,10.4,70,0.00,CLR,,0.00,WeatherDisplay:10.37,2013-02-13 15:56:00,
2013-02-13 11:01:00,82.9,72.1,29.95,SE,135,8.1,8.1,70,0.00,CLR,,0.00,WeatherDisplay:10.37,2013-02-13 16:01:00,
2013-02-13 11:06:00,82.9,72.1,29.95,SE,135,9.2,9.2,70,0.00,CLR,,0.00,WeatherDisplay:10.37,2013-02-13 16:06:00,
2013-02-13 11:11:00,83.1,71.9,29.95,ESE,112,10.4,10.4,69,0.00,CLR,,0.00,WeatherDisplay:10.37,2013-02-13 16:11:00,
2013-02-13 11:16:00,82.9,71.7,29.95,SSE,158,11.5,11.5,69,0.00,CLR,,0.00,WeatherDisplay:10.37,2013-02-13 16:16:00,
2013-02-13 11:21:00,83.1,72.3,29.95,SE,135,11.5,11.5,70,0.00,CLR,,0.00,WeatherDisplay:10.37,2013-02-13 16:21:00,
2013-02-13 11:26:00,83.8,73.0,29.95,SE,135,9.8,9.8,70,0.00,CLR,,0.00,WeatherDisplay:10.37,2013-02-13 16:26:00,
2013-02-13 11:31:00,83.1,71.9,29.94,SE,135,11.5,11.5,69,0.00,CLR,,0.00,WeatherDisplay:10.37,2013-02-13 16:31:00,
2013-02-13 11:36:00,83.1,72.3,29.94,SE,135,10.4,10.4,70,0.00,CLR,,0.00,WeatherDisplay:10.37,2013-02-13 16:36:00,
2013-02-13 11:41:00,83.7,72.4,29.94,NE,45,11.5,11.5,69,0.00,CLR,,0.00,WeatherDisplay:10.37,2013-02-13 16:41:00,
2013-02-13 11:46:00,83.7,72.4,29.94,SE,135,11.5,11.5,69,0.00,CLR,,0.00,WeatherDisplay:10.37,2013-02-13 16:46:00,
2013-02-13 11:51:00,83.7,72.4,29.94,SSE,158,8.4,8.4,69,0.00,CLR,,0.00,WeatherDisplay:10.37,2013-02-13 16:51:00,
2013-02-13 11:56:00,83.3,72.1,29.94,SE,135,8.1,8.1,69,0.00,CLR,,0.00,WeatherDisplay:10.37,2013-02-13 16:56:00,
2013-02-13 12:01:00,82.6,71.8,29.94,East,90,5.8,7.1,70,0.00,CLR,,0.00,WeatherDisplay:10.37,2013-02-13 17:01:00,
2013-02-13 12:06:00,82.6,71.8,29.94,East,90,8.1,8.1,70,0.00,CLR,,0.00,WeatherDisplay:10.37,2013-02-13 17:06:00,
2013-02-13 12:11:00,82.6,71.8,29.93,East,90,8.1,8.1,70,0.00,CLR,,0.00,WeatherDisplay:10.37,2013-02-13 17:11:00,
2013-02-13 12:16:00,83.3,72.9,29.93,SE,135,12.7,12.7,71,0.00,CLR,,0.00,WeatherDisplay:10.37,2013-02-13 17:16:00,
2013-02-13 12:21:00,84.4,73.1,29.93,SSE,158,12.7,12.7,69,0.00,CLR,,0.00,WeatherDisplay:10.37,2013-02-13 17:21:00,
2013-02-13 12:26:00,84.4,73.1,29.93,South,180,15.0,15.0,69,0.00,CLR,,0.00,WeatherDisplay:10.37,2013-02-13 17:26:00,
2013-02-13 12:31:00,84.0,72.8,29.92,South,180,10.5,10.5,69,0.00,CLR,,0.00,WeatherDisplay:10.37,2013-02-13 17:31:00,
2013-02-13 12:36:00,84.4,73.1,29.92,SSW,202,7.2,7.2,69,0.00,CLR,,0.00,WeatherDisplay:10.37,2013-02-13 17:36:00,
2013-02-13 12:41:00,84.0,72.3,29.92,SE,135,11.5,11.5,68,0.00,CLR,,0.00,WeatherDisplay:10.37,2013-02-13 17:41:00,
2013-02-13 12:46:00,83.7,72.0,29.92,SSE,158,13.8,13.8,68,0.00,CLR,,0.00,WeatherDisplay:10.37,2013-02-13 17:46:00,
2013-02-13 12:51:00,83.7,72.4,29.91,South,180,10.5,10.5,69,0.00,CLR,,0.00,WeatherDisplay:10.37,2013-02-13 17:51:00,
2013-02-13 12:56:00,83.8,72.1,29.91,South,180,7.5,7.5,68,0.00,CLR,,0.00,WeatherDisplay:10.37,2013-02-13 17:56:00,
2013-02-13 13:01:00,82.9,71.3,29.91,SE,135,8.3,8.3,68,0.00,CLR,,0.00,WeatherDisplay:10.37,2013-02-13 18:01:00,
2013-02-13 13:06:00,83.1,71.9,29.91,SE,135,7.2,7.2,69,0.00,CLR,,0.00,WeatherDisplay:10.37,2013-02-13 18:06:00,
2013-02-13 13:11:00,84.4,72.7,29.91,SSE,158,12.7,12.7,68,0.00,CLR,,0.00,WeatherDisplay:10.37,2013-02-13 18:11:00,
2013-02-13 13:16:00,84.2,72.0,29.91,South,180,9.2,9.2,67,0.00,CLR,,0.00,WeatherDisplay:10.37,2013-02-13 18:16:00,
2013-02-13 13:21:00,84.0,71.9,29.91,NW,315,10.4,10.4,67,0.00,CLR,,0.00,WeatherDisplay:10.37,2013-02-13 18:21:00,
2013-02-13 13:26:00,84.6,72.4,29.91,SE,135,10.8,10.8,67,0.00,CLR,,0.00,WeatherDisplay:10.37,2013-02-13 18:26:00,
2013-02-13 13:31:00,84.7,72.6,29.90,SE,135,11.5,11.5,67,0.00,CLR,,0.00,WeatherDisplay:10.37,2013-02-13 18:31:00,
2013-02-13 13:36:00,85.1,72.9,29.90,SSE,158,10.8,10.8,67,0.00,CLR,,0.00,WeatherDisplay:10.37,2013-02-13 18:36:00,
2013-02-13 13:41:00,85.3,72.6,29.90,SE,135,11.5,11.5,66,0.00,CLR,,0.00,WeatherDisplay:10.37,2013-02-13 18:41:00,
2013-02-13 13:46:00,85.5,72.3,29.90,South,180,15.0,15.0,65,0.00,CLR,,0.00,WeatherDisplay:10.37,2013-02-13 18:46:00,
2013-02-13 13:51:00,85.1,72.5,29.88,SSE,158,8.1,8.1,66,0.00,CLR,,0.00,WeatherDisplay:10.37,2013-02-13 18:51:00,
2013-02-13 13:56:00,85.1,72.0,29.88,ESE,112,10.8,10.8,65,0.00,CLR,,0.00,WeatherDisplay:10.37,2013-02-13 18:56:00,
2013-02-13 14:01:00,84.6,71.9,29.88,South,180,8.1,8.1,66,0.00,CLR,,0.00,WeatherDisplay:10.37,2013-02-13 19:01:00,
2013-02-13 14:06:00,84.6,71.9,29.88,South,180,11.7,11.7,66,0.00,CLR,,0.00,WeatherDisplay:10.37,2013-02-13 19:06:00,
2013-02-13 14:11:00,84.4,71.8,29.88,SE,135,12.7,12.7,66,0.00,CLR,,0.00,WeatherDisplay:10.37,2013-02-13 19:11:00,
2013-02-13 14:16:00,84.4,71.8,29.88,NW,315,10.4,10.4,66,0.00,CLR,,0.00,WeatherDisplay:10.37,2013-02-13 19:16:00,
2013-02-13 14:21:00,84.7,72.1,29.88,South,180,10.4,10.4,66,0.00,CLR,,0.00,WeatherDisplay:10.37,2013-02-13 19:21:00,
2013-02-13 14:26:00,85.1,72.5,29.88,South,180,12.7,12.7,66,0.00,CLR,,0.00,WeatherDisplay:10.37,2013-02-13 19:26:00,
2013-02-13 14:31:00,84.9,71.8,29.88,SE,135,10.5,10.5,65,0.00,CLR,,0.00,WeatherDisplay:10.37,2013-02-13 19:31:00,
2013-02-13 14:36:00,84.7,71.7,29.88,WSW,248,8.1,8.1,65,0.00,CLR,,0.00,WeatherDisplay:10.37,2013-02-13 19:36:00,
2013-02-13 14:41:00,83.7,71.1,29.88,ESE,112,13.8,13.8,66,0.00,CLR,,0.00,WeatherDisplay:10.37,2013-02-13 19:41:00,
2013-02-13 14:46:00,83.5,70.9,29.88,ESE,112,3.5,6.6,66,0.00,CLR,,0.00,WeatherDisplay:10.37,2013-02-13 19:46:00,
2013-02-13 14:51:00,83.8,71.7,29.87,SSE,158,5.8,5.8,67,0.00,CLR,,0.00,WeatherDisplay:10.37,2013-02-13 19:51:00,
2013-02-13 14:56:00,84.0,71.9,29.87,South,180,4.6,4.8,67,0.00,CLR,,0.00,WeatherDisplay:10.37,2013-02-13 19:56:00,
2013-02-13 15:01:00,83.1,71.0,29.87,SSE,158,8.1,8.1,67,0.00,CLR,,0.00,WeatherDisplay:10.37,2013-02-13 20:01:00,
2013-02-13 15:06:00,83.1,71.0,29.87,SSW,202,3.8,5.4,67,0.00,CLR,,0.00,WeatherDisplay:10.37,2013-02-13 20:06:00,
2013-02-13 15:11:00,82.8,70.7,29.87,South,180,6.9,6.9,67,0.00,CLR,,0.00,WeatherDisplay:10.37,2013-02-13 20:11:00,
2013-02-13 15:16:00,82.4,70.8,29.87,SE,135,9.2,9.2,68,0.00,CLR,,0.00,WeatherDisplay:10.37,2013-02-13 20:16:00,
2013-02-13 15:21:00,82.9,71.3,29.87,SE,135,11.5,11.5,68,0.00,CLR,,0.00,WeatherDisplay:10.37,2013-02-13 20:21:00,
2013-02-13 15:26:00,82.8,71.1,29.87,SSW,202,6.9,6.9,68,0.00,CLR,,0.00,WeatherDisplay:10.37,2013-02-13 20:26:00,
2013-02-13 15:31:00,82.6,70.9,29.88,South,180,10.4,10.4,68,0.00,CLR,,0.00,WeatherDisplay:10.37,2013-02-13 20:31:00,
2013-02-13 15:36:00,82.4,70.8,29.88,SSE,158,6.9,6.9,68,0.00,CLR,,0.00,WeatherDisplay:10.37,2013-02-13 20:36:00,
2013-02-13 15:41:00,82.0,70.9,29.88,SSE,158,8.1,8.1,69,0.00,CLR,,0.00,WeatherDisplay:10.37,2013-02-13 20:41:00,
2013-02-13 15:46:00,81.9,70.7,29.88,South,180,9.2,9.2,69,0.00,CLR,,0.00,WeatherDisplay:10.37,2013-02-13 20:46:00,
2013-02-13 15:51:00,81.9,70.7,29.87,SSE,158,12.7,12.7,69,0.00,CLR,,0.00,WeatherDisplay:10.37,2013-02-13 20:51:00,
2013-02-13 15:56:00,82.0,70.9,29.87,SSW,202,4.6,6.6,69,0.00,CLR,,0.00,WeatherDisplay:10.37,2013-02-13 20:56:00,
2013-02-13 16:01:00,82.2,71.0,29.87,SSE,158,6.9,6.9,69,0.00,CLR,,0.00,WeatherDisplay:10.37,2013-02-13 21:01:00,
2013-02-13 16:06:00,82.2,71.0,29.87,North,0,4.6,5.4,69,0.00,CLR,,0.00,WeatherDisplay:10.37,2013-02-13 21:06:00,
2013-02-13 16:11:00,81.9,70.7,29.88,SE,135,8.1,8.1,69,0.00,CLR,,0.00,WeatherDisplay:10.37,2013-02-13 21:11:00,
2013-02-13 16:16:00,81.7,70.9,29.88,South,180,6.9,6.9,70,0.00,CLR,,0.00,WeatherDisplay:10.37,2013-02-13 21:16:00,
2013-02-13 16:21:00,81.7,70.9,29.88,ESE,112,6.9,6.9,70,0.00,CLR,,0.00,WeatherDisplay:10.37,2013-02-13 21:21:00,
2013-02-13 16:27:00,81.1,70.4,29.88,SSE,158,5.9,6.1,70,0.00,CLR,,0.00,WeatherDisplay:10.37,2013-02-13 21:27:00,
2013-02-13 16:32:00,81.1,70.4,29.86,South,180,6.9,6.9,70,0.00,CLR,,0.00,WeatherDisplay:10.37,2013-02-13 21:32:00,
2013-02-13 16:37:00,81.5,70.8,29.86,SE,135,10.4,10.4,70,0.00,CLR,,0.00,WeatherDisplay:10.37,2013-02-13 21:37:00,
2013-02-13 16:42:00,81.5,70.8,29.86,South,180,4.6,5.8,70,0.00,CLR,,0.00,WeatherDisplay:10.37,2013-02-13 21:42:00,
2013-02-13 16:47:00,81.0,70.3,29.86,SSW,202,10.4,10.4,70,0.00,CLR,,0.00,WeatherDisplay:10.37,2013-02-13 21:47:00,
2013-02-13 16:52:00,81.1,70.8,29.87,SW,225,8.1,8.1,71,0.00,CLR,,0.00,WeatherDisplay:10.37,2013-02-13 21:52:00,
2013-02-13 16:57:00,80.8,70.5,29.87,SSE,158,4.6,4.9,71,0.00,CLR,,0.00,WeatherDisplay:10.37,2013-02-13 21:57:00,
2013-02-13 17:02:00,80.8,70.5,29.87,South,180,5.8,5.8,71,0.00,CLR,,0.00,WeatherDisplay:10.37,2013-02-13 22:02:00,
2013-02-13 17:07:00,80.8,70.5,29.88,ESE,112,6.9,6.9,71,0.00,CLR,,0.00,WeatherDisplay:10.37,2013-02-13 22:07:00,
2013-02-13 17:12:00,80.6,70.3,29.88,SE,135,4.6,4.7,71,0.00,CLR,,0.00,WeatherDisplay:10.37,2013-02-13 22:12:00,
2013-02-13 17:17:00,80.4,70.2,29.88,SW,225,5.8,5.8,71,0.00,CLR,,0.00,WeatherDisplay:10.37,2013-02-13 22:17:00,
2013-02-13 17:22:00,80.2,70.0,29.88,SE,135,7.2,7.2,71,0.00,CLR,,0.00,WeatherDisplay:10.37,2013-02-13 22:22:00,
2013-02-13 17:27:00,80.2,70.0,29.88,SE,135,6.9,6.9,71,0.00,CLR,,0.00,WeatherDisplay:10.37,2013-02-13 22:27:00,
2013-02-13 17:32:00,80.1,71.0,29.88,SSE,158,3.5,4.3,74,0.00,CLR,,0.00,WeatherDisplay:10.37,2013-02-13 22:32:00,
2013-02-13 17:37:00,79.3,71.1,29.88,South,180,9.2,9.2,76,0.00,CLR,,0.00,WeatherDisplay:10.37,2013-02-13 22:37:00,
2013-02-13 17:42:00,79.3,71.1,29.88,ESE,112,5.8,5.8,76,0.00,CLR,,0.00,WeatherDisplay:10.37,2013-02-13 22:42:00,
2013-02-13 17:47:00,79.5,70.9,29.88,SSE,158,5.8,5.8,75,0.00,CLR,,0.00,WeatherDisplay:10.37,2013-02-13 22:47:00,
2013-02-13 17:52:00,79.3,70.3,29.88,SSE,158,5.1,5.1,74,0.00,CLR,,0.00,WeatherDisplay:10.37,2013-02-13 22:52:00,
2013-02-13 17:57:00,79.2,70.2,29.88,SE,135,3.6,3.6,74,0.00,CLR,,0.00,WeatherDisplay:10.37,2013-02-13 22:57:00,
2013-02-13 18:02:00,79.3,70.3,29.88,SSE,158,4.9,4.9,74,0.00,CLR,,0.00,WeatherDisplay:10.37,2013-02-13 23:02:00,
2013-02-13 18:07:00,79.0,69.6,29.88,SE,135,3.5,3.5,73,0.00,CLR,,0.00,WeatherDisplay:10.37,2013-02-13 23:07:00,
2013-02-13 18:12:00,78.8,69.8,29.88,South,180,5.8,5.8,74,0.00,CLR,,0.00,WeatherDisplay:10.37,2013-02-13 23:12:00,
2013-02-13 18:17:00,79.0,70.0,29.88,South,180,3.5,3.5,74,0.00,CLR,,0.00,WeatherDisplay:10.37,2013-02-13 23:17:00,
2013-02-13 18:22:00,78.6,69.6,29.88,SSE,158,5.8,5.8,74,0.00,CLR,,0.00,WeatherDisplay:10.37,2013-02-13 23:22:00,
2013-02-13 18:27:00,78.6,69.6,29.88,WSW,248,3.5,3.5,74,0.00,CLR,,0.00,WeatherDisplay:10.37,2013-02-13 23:27:00,
2013-02-13 18:32:00,78.3,69.3,29.88,South,180,4.7,4.7,74,0.00,CLR,,0.00,WeatherDisplay:10.37,2013-02-13 23:32:00,
2013-02-13 18:37:00,78.1,69.1,29.88,SSE,158,4.6,4.6,74,0.00,CLR,,0.00,WeatherDisplay:10.37,2013-02-13 23:37:00,
2013-02-13 18:42:00,78.1,69.5,29.88,South,180,1.1,2.1,75,0.00,CLR,,0.00,WeatherDisplay:10.37,2013-02-13 23:42:00,
2013-02-13 18:47:00,77.9,69.3,29.89,East,90,1.1,1.3,75,0.00,CLR,,0.00,WeatherDisplay:10.37,2013-02-13 23:47:00,
2013-02-13 18:52:00,77.9,69.3,29.89,South,180,2.3,2.3,75,0.00,CLR,,0.00,WeatherDisplay:10.37,2013-02-13 23:52:00,
2013-02-13 18:57:00,77.5,69.0,29.89,SW,225,0.0,1.1,75,0.00,CLR,,0.00,WeatherDisplay:10.37,2013-02-13 23:57:00,
2013-02-13 19:02:00,77.4,68.8,29.89,SSW,202,1.1,1.1,75,0.00,CLR,,0.00,WeatherDisplay:10.37,2013-02-14 00:02:00,
2013-02-13 19:07:00,77.4,68.8,29.89,WSW,248,2.3,2.3,75,0.00,CLR,,0.00,WeatherDisplay:10.37,2013-02-14 00:07:00,
2013-02-13 19:12:00,77.4,68.8,29.89,SE,135,1.0,1.1,75,0.00,CLR,,0.00,WeatherDisplay:10.37,2013-02-14 00:12:00,
2013-02-13 19:17:00,77.4,68.8,29.89,West,270,2.3,2.3,75,0.00,CLR,,0.00,WeatherDisplay:10.37,2013-02-14 00:17:00,
2013-02-13 19:23:00,77.2,68.6,29.89,ENE,68,1.1,1.1,75,0.00,CLR,,0.00,WeatherDisplay:10.37,2013-02-14 00:23:00,
2013-02-13 19:28:00,77.5,68.6,29.89,SW,225,2.3,2.3,74,0.00,CLR,,0.00,WeatherDisplay:10.37,2013-02-14 00:28:00,
2013-02-13 19:33:00,77.5,67.8,29.89,WSW,248,1.1,1.1,72,0.00,CLR,,0.00,WeatherDisplay:10.37,2013-02-14 00:33:00,
2013-02-13 19:38:00,77.4,67.6,29.89,SSE,158,2.5,2.5,72,0.00,CLR,,0.00,WeatherDisplay:10.37,2013-02-14 00:38:00,
2013-02-13 19:43:00,77.4,67.6,29.89,WSW,248,2.8,2.8,72,0.00,CLR,,0.00,WeatherDisplay:10.37,2013-02-14 00:43:00,
2013-02-13 19:48:00,77.5,67.4,29.89,SW,225,5.8,5.8,71,0.00,CLR,,0.00,WeatherDisplay:10.37,2013-02-14 00:48:00,
2013-02-13 19:53:00,77.5,67.4,29.89,NNE,22,3.5,3.5,71,0.00,CLR,,0.00,WeatherDisplay:10.37,2013-02-14 00:53:00,
2013-02-13 19:58:00,77.5,67.4,29.89,West,270,2.3,2.3,71,0.00,CLR,,0.00,WeatherDisplay:10.37,2013-02-14 00:58:00,
2013-02-13 20:03:00,77.4,67.2,29.89,West,270,1.7,1.7,71,0.00,CLR,,0.00,WeatherDisplay:10.37,2013-02-14 01:03:00,
2013-02-13 20:08:00,77.4,67.2,29.89,East,90,2.3,2.3,71,0.00,CLR,,0.00,WeatherDisplay:10.37,2013-02-14 01:08:00,
2013-02-13 20:13:00,77.4,67.6,29.89,West,270,2.3,2.3,72,0.00,CLR,,0.00,WeatherDisplay:10.37,2013-02-14 01:13:00,
2013-02-13 20:18:00,77.2,67.5,29.89,South,180,2.3,2.3,72,0.00,CLR,,0.00,WeatherDisplay:10.37,2013-02-14 01:18:00,
2013-02-13 20:23:00,77.2,67.5,29.89,WSW,248,0.0,1.0,72,0.00,CLR,,0.00,WeatherDisplay:10.37,2013-02-14 01:23:00,
2013-02-13 20:28:00,77.0,67.3,29.90,SSE,158,2.3,2.3,72,0.00,CLR,,0.00,WeatherDisplay:10.37,2013-02-14 01:28:00,
2013-02-13 20:33:00,76.8,67.1,29.90,South,180,1.1,1.1,72,0.00,CLR,,0.00,WeatherDisplay:10.37,2013-02-14 01:33:00,
2013-02-13 20:38:00,76.6,66.9,29.90,WSW,248,3.5,3.5,72,0.00,CLR,,0.00,WeatherDisplay:10.37,2013-02-14 01:38:00,
2013-02-13 20:43:00,76.8,67.5,29.90,WSW,248,1.1,1.4,73,0.00,CLR,,0.00,WeatherDisplay:10.37,2013-02-14 01:43:00,
2013-02-13 20:48:00,76.6,67.3,29.91,South,180,2.3,2.3,73,0.00,CLR,,0.00,WeatherDisplay:10.37,2013-02-14 01:48:00,
2013-02-13 20:53:00,76.5,67.2,29.91,WNW,292,1.3,1.7,73,0.00,CLR,,0.00,WeatherDisplay:10.37,2013-02-14 01:53:00,
2013-02-13 20:58:00,76.5,67.2,29.91,SW,225,3.5,3.5,73,0.00,CLR,,0.00,WeatherDisplay:10.37,2013-02-14 01:58:00,
2013-02-13 21:03:00,76.5,67.2,29.91,SW,225,2.3,2.3,73,0.00,CLR,,0.00,WeatherDisplay:10.37,2013-02-14 02:03:00,
2013-02-13 21:08:00,76.5,67.2,29.91,West,270,2.3,2.3,73,0.00,CLR,,0.00,WeatherDisplay:10.37,2013-02-14 02:08:00,
2013-02-13 21:13:00,76.3,67.0,29.91,West,270,2.3,2.3,73,0.00,CLR,,0.00,WeatherDisplay:10.37,2013-02-14 02:13:00,
2013-02-13 21:18:00,76.1,66.8,29.91,NW,315,4.6,4.6,73,0.00,CLR,,0.00,WeatherDisplay:10.37,2013-02-14 02:18:00,
2013-02-13 21:23:00,76.1,66.8,29.91,West,270,1.1,1.4,73,0.00,CLR,,0.00,WeatherDisplay:10.37,2013-02-14 02:23:00,
2013-02-13 21:28:00,75.9,67.0,29.92,SSW,202,1.1,1.1,74,0.00,CLR,,0.00,WeatherDisplay:10.37,2013-02-14 02:28:00,
2013-02-13 21:33:00,76.1,67.2,29.92,WSW,248,2.3,2.3,74,0.00,CLR,,0.00,WeatherDisplay:10.37,2013-02-14 02:33:00,
2013-02-13 21:38:00,76.1,67.2,29.92,SW,225,2.3,2.3,74,0.00,CLR,,0.00,WeatherDisplay:10.37,2013-02-14 02:38:00,
2013-02-13 21:43:00,75.9,67.0,29.92,ENE,68,5.8,5.8,74,0.00,CLR,,0.00,WeatherDisplay:10.37,2013-02-14 02:43:00,
2013-02-13 21:48:00,75.7,66.9,29.92,SW,225,2.6,2.6,74,0.00,CLR,,0.00,WeatherDisplay:10.37,2013-02-14 02:48:00,
2013-02-13 21:53:00,75.7,66.9,29.92,West,270,2.3,2.3,74,0.00,CLR,,0.00,WeatherDisplay:10.37,2013-02-14 02:53:00,
2013-02-13 21:58:00,75.6,66.7,29.92,WSW,248,0.0,0.6,74,0.00,CLR,,0.00,WeatherDisplay:10.37,2013-02-14 02:58:00,
2013-02-13 22:03:00,75.4,66.9,29.92,SW,225,0.0,0.1,75,0.00,CLR,,0.00,WeatherDisplay:10.37,2013-02-14 03:03:00,
2013-02-13 22:08:00,75.2,66.7,29.93,West,270,0.0,0.1,75,0.00,CLR,,0.00,WeatherDisplay:10.37,2013-02-14 03:08:00,
2013-02-13 22:13:00,75.0,66.6,29.93,WNW,292,0.0,0.0,75,0.00,CLR,,0.00,WeatherDisplay:10.37,2013-02-14 03:13:00,
2013-02-13 22:18:00,75.0,66.9,29.93,West,270,0.0,0.1,76,0.00,CLR,,0.00,WeatherDisplay:10.37,2013-02-14 03:18:00,
2013-02-13 22:23:00,74.8,66.8,29.93,SSE,158,2.3,2.3,76,0.00,CLR,,0.00,WeatherDisplay:10.37,2013-02-14 03:23:00,
2013-02-13 22:28:00,75.0,66.9,29.93,WSW,248,0.0,0.3,76,0.00,CLR,,0.00,WeatherDisplay:10.37,2013-02-14 03:28:00,
2013-02-13 22:33:00,75.0,66.9,29.93,NNW,338,1.1,1.1,76,0.00,CLR,,0.00,WeatherDisplay:10.37,2013-02-14 03:33:00,
2013-02-13 22:38:00,74.8,66.8,29.93,South,180,0.0,0.2,76,0.00,CLR,,0.00,WeatherDisplay:10.37,2013-02-14 03:38:00,
2013-02-13 22:43:00,74.7,66.6,29.93,South,180,0.0,0.0,76,0.00,CLR,,0.00,WeatherDisplay:10.37,2013-02-14 03:43:00,
2013-02-13 22:48:00,74.5,66.8,29.93,SSW,202,0.0,0.1,77,0.00,CLR,,0.00,WeatherDisplay:10.37,2013-02-14 03:48:00,
2013-02-13 22:53:00,74.5,66.8,29.93,South,180,1.1,1.1,77,0.00,CLR,,0.00,WeatherDisplay:10.37,2013-02-14 03:53:00,
2013-02-13 22:58:00,74.3,66.6,29.93,WSW,248,1.1,1.1,77,0.00,CLR,,0.00,WeatherDisplay:10.37,2013-02-14 03:58:00,
2013-02-13 23:03:00,74.5,67.2,29.93,South,180,2.3,2.3,78,0.00,CLR,,0.00,WeatherDisplay:10.37,2013-02-14 04:03:00,
2013-02-13 23:08:00,74.3,67.0,29.92,West,270,3.5,3.5,78,0.00,CLR,,0.00,WeatherDisplay:10.37,2013-02-14 04:08:00,
2013-02-13 23:13:00,74.1,66.8,29.92,ENE,68,1.1,1.1,78,0.00,CLR,,0.00,WeatherDisplay:10.37,2013-02-14 04:13:00,
2013-02-13 23:18:00,74.1,66.8,29.92,SSE,158,0.0,0.3,78,0.00,CLR,,0.00,WeatherDisplay:10.37,2013-02-14 04:18:00,
2013-02-13 23:23:00,74.1,66.8,29.92,ENE,68,0.0,0.2,78,0.00,CLR,,0.00,WeatherDisplay:10.37,2013-02-14 04:23:00,
2013-02-13 23:28:00,74.3,67.0,29.92,SSE,158,3.5,3.5,78,0.00,CLR,,0.00,WeatherDisplay:10.37,2013-02-14 04:28:00,
2013-02-13 23:33:00,74.1,66.8,29.92,WSW,248,1.1,1.1,78,0.00,CLR,,0.00,WeatherDisplay:10.37,2013-02-14 04:33:00,
2013-02-13 23:38:00,74.1,67.2,29.92,ESE,112,1.1,1.1,79,0.00,CLR,,0.00,WeatherDisplay:10.37,2013-02-14 04:38:00,
2013-02-13 23:43:00,73.9,67.0,29.92,West,270,1.1,1.1,79,0.00,CLR,,0.00,WeatherDisplay:10.37,2013-02-14 04:43:00,
2013-02-13 23:48:00,73.9,67.0,29.93,WSW,248,0.0,0.6,79,0.00,CLR,,0.00,WeatherDisplay:10.37,2013-02-14 04:48:00,
2013-02-13 23:53:00,73.9,67.0,29.93,NNE,22,1.1,1.1,79,0.00,CLR,,0.00,WeatherDisplay:10.37,2013-02-14 04:53:00,
2013-02-13 23:58:00,73.8,66.8,29.93,WSW,248,0.0,0.7,79,0.00,CLR,,0.00,WeatherDisplay:10.37,2013-02-14 04:58:00,